period_start,C,m1,H,J0,J1,J2,J3,J4,J5,JA,JB,JC,JD,JJ,JK,JN,#
2018-05-29 00:03:47,0.05,0.93,0.00,24.54,28.72,31.76,13.75,48.35,997.57,2019.62,3032.30,2834.19,3216.00,600.06,581.91,49.30,0000 0000 0000 0000 000000
2018-05-29 00:08:49,0.02,0.93,0.00,24.53,28.71,31.76,13.72,48.42,997.57,2019.86,3032.10,2834.14,3215.98,600.22,582.14,49.35,0000 0000 0000 0000 000000
2018-05-29 00:13:50,0.00,0.93,0.00,24.53,28.70,31.73,13.58,48.42,997.57,2019.91,3032.02,2834.06,3215.97,599.89,581.79,49.41,0000 0000 0000 0000 000000
2018-05-29 00:18:51,0.01,0.93,0.00,24.52,28.68,31.74,13.71,48.34,997.57,2019.96,3032.00,2834.03,3215.64,599.95,581.95,49.46,0000 0000 0000 0000 000000
2018-05-29 00:23:53,0.00,0.93,0.00,24.52,28.67,31.75,13.72,48.30,997.57,2019.99,3031.98,2834.01,3215.53,600.04,581.93,49.51,0000 0000 0000 0000 000000
2018-05-29 00:28:54,-0.01,0.93,0.00,24.52,28.65,31.71,13.66,48.31,997.59,2019.98,3031.98,2834.00,3215.64,600.15,582.05,49.56,0000 0000 0000 0000 000000
2018-05-29 00:33:55,0.01,0.93,0.00,24.52,28.65,31.73,13.66,48.37,997.60,2019.99,3031.77,2834.00,3215.18,599.92,581.95,49.61,0000 0000 0000 0000 000000
2018-05-29 00:38:56,0.01,0.93,0.00,24.52,28.63,31.73,13.61,48.36,997.62,2019.99,3031.13,2833.99,3215.00,599.87,581.85,49.66,0000 0000 0000 0000 000000
2018-05-29 00:43:57,0.00,0.93,0.00,24.52,28.62,31.69,13.72,48.42,997.63,2019.99,3031.02,2833.98,3215.00,600.30,582.22,49.71,0000 0000 0000 0000 000000
2018-05-29 00:48:58,0.00,0.93,0.00,24.52,28.61,31.70,13.69,48.42,997.80,2019.99,3031.01,2833.97,3214.98,600.19,582.19,49.76,0000 0000 0000 0000 000000
2018-05-29 00:53:59,0.01,0.93,0.00,24.54,28.60,31.68,13.72,48.33,998.03,2020.00,3030.94,2833.90,3214.76,599.95,582.03,49.81,0000 0000 0000 0000 000000
2018-05-29 00:59:00,0.02,0.93,0.00,24.55,28.60,31.69,13.68,48.43,998.06,2020.00,3030.89,2833.56,3214.50,599.75,581.91,49.86,0000 0000 0000 0000 000000
2018-05-29 01:04:01,0.02,0.93,0.00,24.55,28.59,31.67,13.67,48.48,998.06,2020.01,3030.65,2833.26,3214.47,599.84,581.85,49.91,0000 0000 0000 0000 000000
2018-05-29 01:09:02,0.01,0.93,0.00,24.55,28.58,31.67,13.66,48.42,998.06,2020.00,3030.09,2833.05,3214.02,599.86,582.01,49.96,0000 0000 0000 0000 000000
2018-05-29 01:14:04,0.00,0.93,0.00,24.56,28.57,31.68,13.66,48.45,998.06,2020.01,3030.01,2833.01,3214.01,600.20,582.21,50.01,0000 0000 0000 0000 000000
2018-05-29 01:19:05,0.00,0.93,0.00,24.56,28.57,31.67,13.65,48.42,998.06,2020.02,3030.02,2833.00,3214.01,599.81,581.82,50.06,0000 0000 0000 0000 000000
2018-05-29 01:24:06,0.01,0.93,0.00,24.57,28.57,31.67,13.59,48.41,998.08,2020.02,3029.85,2833.00,3213.76,599.71,581.83,50.11,0000 0000 0000 0000 000000
2018-05-29 01:29:07,0.02,0.93,0.00,24.58,28.56,31.67,13.67,48.42,998.25,2020.03,3029.44,2832.98,3213.32,599.75,582.02,50.16,0000 0000 0000 0000 000000
2018-05-29 01:34:08,0.01,0.94,0.00,24.59,28.55,31.67,13.68,48.41,998.47,2020.03,3029.06,2832.91,3213.03,600.05,582.28,50.21,0000 0000 0000 0000 000000
2018-05-29 01:39:09,0.01,0.94,0.00,24.58,28.55,31.66,13.75,48.44,998.51,2020.06,3029.00,2832.65,3212.99,600.29,582.53,50.26,0000 0000 0000 0000 000000
2018-05-29 01:44:11,0.01,0.94,0.00,24.59,28.55,31.64,13.64,48.41,998.52,2020.08,3028.99,2832.30,3212.95,599.86,582.13,50.31,0000 0000 0000 0000 000000
2018-05-29 01:49:12,0.02,0.94,0.00,24.60,28.55,31.66,13.69,48.42,998.55,2020.17,3028.85,2832.06,3212.69,599.89,582.22,50.37,0000 0000 0000 0000 000000
2018-05-29 01:54:13,0.02,0.94,0.00,24.60,28.55,31.66,13.73,48.34,998.55,2020.23,3028.49,2832.02,3212.28,600.12,582.41,50.42,0000 0000 0000 0000 000000
2018-05-29 01:59:14,-0.00,0.94,0.00,24.61,28.55,31.65,13.75,48.41,998.55,2020.17,3028.45,2832.00,3212.14,600.34,582.51,50.47,0000 0000 0000 0000 000000
2018-05-29 02:04:15,0.01,0.94,0.00,24.62,28.55,31.67,13.64,48.38,998.56,2020.12,3028.12,2832.00,3212.02,599.68,582.03,50.52,0000 0000 0000 0000 000000
2018-05-29 02:09:16,-0.00,0.94,0.00,24.62,28.55,31.66,13.68,48.37,998.56,2020.08,3028.00,2831.98,3211.95,600.01,582.20,50.57,0000 0000 0000 0000 000000
2018-05-29 02:14:18,0.01,0.94,0.00,24.63,28.55,31.66,13.71,48.45,998.57,2020.15,3027.91,2831.83,3211.62,599.98,582.20,50.62,0000 0000 0000 0000 000000
2018-05-29 02:19:19,0.02,0.94,0.00,24.65,28.55,31.63,13.70,48.51,998.56,2020.07,3027.78,2831.45,3211.35,600.30,582.48,50.67,0000 0000 0000 0000 000000
2018-05-29 02:24:20,0.03,0.94,0.00,24.65,28.55,31.65,13.65,48.42,998.57,2020.23,3027.33,2831.17,3211.07,600.11,582.26,50.72,0000 0000 0000 0000 000000
2018-05-29 02:29:22,0.00,0.94,0.00,24.65,28.55,31.66,13.59,48.41,998.70,2020.20,3027.00,2831.01,3210.89,600.04,582.31,50.77,0000 0000 0000 0000 000000
2018-05-29 02:34:23,0.00,0.94,0.00,24.66,28.55,31.66,13.63,48.35,998.89,2020.28,3026.97,2831.01,3210.72,599.99,582.35,50.82,0000 0000 0000 0000 000000
2018-05-29 02:39:25,0.01,0.94,0.00,24.66,28.55,31.67,13.63,48.43,999.01,2020.13,3026.88,2831.00,3210.35,599.73,582.32,50.87,0000 0000 0000 0000 000000
2018-05-29 02:44:26,0.01,0.94,0.00,24.67,28.55,31.66,13.71,48.42,999.04,2020.11,3026.47,2830.97,3210.05,599.93,582.27,50.92,0000 0000 0000 0000 000000
2018-05-29 02:49:27,0.01,0.94,0.00,24.67,28.55,31.68,13.66,48.45,999.04,2020.13,3026.12,2830.92,3210.00,599.58,581.99,50.97,0000 0000 0000 0000 000000
2018-05-29 02:54:28,0.02,0.94,0.00,24.67,28.55,31.68,13.66,48.39,999.04,2020.13,3026.04,2830.54,3209.96,600.02,582.42,51.02,0000 0000 0000 0000 000000
2018-05-29 02:59:30,0.02,0.95,0.00,24.68,28.55,31.68,13.64,48.38,999.05,2020.14,3025.97,2830.10,3209.61,599.93,582.52,51.07,0000 0000 0000 0000 000000
2018-05-29 03:04:31,0.01,0.95,0.00,24.68,28.56,31.68,13.65,48.41,999.16,2020.23,3025.95,2830.03,3209.37,599.86,582.41,51.12,0000 0000 0000 0000 000000
2018-05-29 03:09:32,0.01,0.95,0.00,24.69,28.57,31.68,13.63,48.43,999.45,2020.22,3025.47,2830.00,3209.03,599.97,582.61,51.17,0000 0000 0000 0000 000000
2018-05-29 03:14:33,0.02,0.95,0.00,24.70,28.57,31.67,13.64,48.42,999.45,2020.36,3025.30,2830.00,3209.00,599.74,582.37,51.23,0000 0000 0000 0000 000000
2018-05-29 03:19:34,0.01,0.95,0.00,24.70,28.57,31.68,13.66,48.41,999.38,2020.51,3025.01,2830.00,3208.94,600.10,582.69,51.28,0000 0000 0000 0000 000000
2018-05-29 03:24:35,-0.01,0.95,0.00,24.70,28.57,31.71,13.72,48.48,999.48,2020.22,3025.00,2829.96,3208.64,600.09,582.73,51.33,0000 0000 0000 0000 000000
2018-05-29 03:29:37,0.01,0.95,0.00,24.70,28.57,31.71,13.63,48.48,999.51,2020.19,3024.98,2829.87,3208.28,599.80,582.50,51.38,0000 0000 0000 0000 000000
2018-05-29 03:34:38,0.02,0.95,0.00,24.70,28.57,31.71,13.80,48.55,999.53,2020.18,3024.80,2829.48,3208.05,600.51,583.18,51.43,0000 0000 0000 0000 000000
2018-05-29 03:39:39,0.03,0.95,0.00,24.70,28.57,31.72,13.66,48.48,999.53,2020.22,3024.22,2829.09,3208.00,599.92,582.55,51.48,0000 0000 0000 0000 000000
2018-05-29 03:44:40,-0.00,0.95,0.00,24.70,28.57,31.71,13.64,48.56,999.53,2020.27,3024.05,2829.02,3207.99,600.23,582.89,51.53,0000 0000 0000 0000 000000
2018-05-29 03:49:41,0.03,0.95,0.00,24.70,28.58,31.69,13.62,48.51,999.56,2020.57,3024.00,2829.02,3207.92,600.00,582.61,51.58,0000 0000 0000 0000 000000
2018-05-29 03:54:43,0.00,0.95,0.00,24.70,28.59,31.69,13.70,48.48,999.75,2020.56,3024.00,2829.00,3207.53,599.87,582.79,51.63,0000 0000 0000 0000 000000
2018-05-29 03:59:44,-0.01,0.95,0.00,24.69,28.59,31.74,13.71,48.51,999.95,2020.35,3023.93,2829.00,3207.07,600.05,582.98,51.68,0000 0000 0000 0000 000000
2018-05-29 04:04:45,-0.01,0.95,0.00,24.70,28.60,31.72,13.69,48.54,1000.01,2020.19,3023.69,2828.95,3207.00,599.90,582.99,51.73,0000 0000 0000 0000 000000
2018-05-29 04:09:47,0.03,0.95,0.00,24.68,28.60,31.74,13.67,48.46,1000.01,2020.26,3023.12,2828.84,3206.93,600.02,582.96,51.78,0000 0000 0000 0000 000000
2018-05-29 04:14:48,0.03,0.96,0.00,24.67,28.60,31.72,13.66,48.46,1000.02,2020.49,3023.00,2828.41,3206.60,600.05,583.06,51.83,0000 0000 0000 0000 000000
2018-05-29 04:19:49,0.00,0.96,0.00,24.67,28.60,31.72,13.66,48.51,1000.05,2020.32,3022.97,2828.07,3206.16,600.08,583.18,51.88,0000 0000 0000 0000 000000
2018-05-29 04:24:50,0.00,0.96,0.00,24.67,28.60,31.71,13.71,48.48,1000.15,2020.28,3022.84,2828.00,3206.00,600.16,583.22,51.93,0000 0000 0000 0000 000000
2018-05-29 04:29:52,0.02,0.96,0.00,24.67,28.60,31.72,13.75,48.53,1000.33,2020.35,3022.46,2828.00,3206.00,599.98,583.27,51.98,0000 0000 0000 0000 000000
2018-05-29 04:34:53,0.01,0.96,0.00,24.67,28.60,31.73,13.75,48.55,1000.40,2020.28,3022.03,2827.99,3205.82,600.16,583.36,52.03,0000 0000 0000 0000 000000
2018-05-29 04:39:55,0.01,0.96,0.00,24.67,28.60,31.73,13.69,48.52,1000.49,2020.23,3021.99,2827.93,3205.10,599.87,583.39,52.08,0000 0000 0000 0000 000000
2018-05-29 04:44:56,0.03,0.96,0.00,24.66,28.60,31.71,13.66,48.47,1000.50,2020.26,3021.76,2827.71,3205.00,599.73,582.98,52.13,0000 0000 0000 0000 000000
2018-05-29 04:49:57,0.03,0.96,0.00,24.65,28.60,31.72,13.68,48.51,1000.50,2020.38,3021.13,2827.16,3204.95,599.90,583.27,52.19,0000 0000 0000 0000 000000
2018-05-29 04:54:58,-0.00,0.96,0.00,24.65,28.60,31.71,13.67,48.48,1000.52,2020.33,3021.01,2827.03,3204.56,600.05,583.38,52.24,0000 0000 0000 0000 000000
2018-05-29 04:59:59,0.00,0.96,0.00,24.65,28.60,31.72,13.72,48.48,1000.52,2020.31,3020.99,2827.00,3204.08,599.93,583.27,52.29,0000 0000 0000 0000 000000
2018-05-29 05:05:00,0.01,0.96,0.00,24.65,28.60,31.73,13.76,48.48,1000.65,2020.45,3020.71,2827.00,3204.00,599.98,583.52,52.34,0000 0000 0000 0000 000000
2018-05-29 05:10:02,0.03,0.96,0.00,24.65,28.60,31.73,13.76,48.45,1000.93,2020.40,3020.10,2826.98,3203.82,599.99,583.57,52.39,0000 0000 0000 0000 000000
2018-05-29 05:15:03,0.01,0.96,0.00,24.65,28.60,31.73,13.75,48.43,1000.97,2020.60,3020.01,2826.94,3203.57,600.11,583.74,52.44,0000 0000 0000 0000 000000
2018-05-29 05:20:04,0.04,0.96,0.00,24.65,28.60,31.73,13.64,48.48,1000.99,2020.71,3020.00,2826.72,3203.04,600.03,583.71,52.49,0000 0000 0000 0000 000000
2018-05-29 05:25:06,0.02,0.97,0.00,24.65,28.60,31.72,13.68,48.48,1001.00,2020.90,3019.87,2826.48,3203.00,599.69,583.38,52.54,0000 0000 0000 0000 000000
2018-05-29 05:30:07,0.01,0.97,0.00,24.65,28.60,31.72,13.71,48.62,1001.07,2020.90,3019.17,2826.09,3202.91,600.16,583.83,52.59,0000 0000 0000 0000 000000
2018-05-29 05:35:09,0.02,0.97,0.00,24.65,28.59,31.71,13.70,48.58,1001.35,2020.96,3019.01,2826.01,3202.26,600.16,583.93,52.64,0000 0000 0000 0000 000000
2018-05-29 05:40:10,0.00,0.97,0.00,24.65,28.59,31.73,13.72,48.59,1001.46,2020.98,3019.00,2826.01,3202.02,600.13,583.98,52.69,0000 0000 0000 0000 000000
2018-05-29 05:45:11,0.00,0.97,0.00,24.65,28.58,31.71,13.59,48.61,1001.48,2020.97,3018.97,2826.00,3202.00,599.80,583.79,52.74,0000 0000 0000 0000 000000
2018-05-29 05:50:12,0.02,0.97,0.00,24.65,28.58,31.70,13.70,48.52,1001.48,2020.96,3018.42,2826.00,3201.75,600.02,583.97,52.79,0000 0000 0000 0000 000000
2018-05-29 05:55:13,0.01,0.97,0.00,24.66,28.58,31.69,13.67,48.46,1001.57,2020.99,3018.00,2825.98,3201.04,600.03,583.78,52.84,0000 0000 0000 0000 000000
2018-05-29 06:00:15,0.00,0.97,0.00,24.66,28.57,31.69,13.75,48.49,1001.77,2020.99,3017.96,2825.94,3201.00,600.04,584.03,52.89,0000 0000 0000 0000 000000
2018-05-29 06:05:16,0.03,0.97,0.00,24.67,28.58,31.71,13.75,48.52,1001.93,2020.99,3017.39,2825.58,3200.69,599.92,584.04,52.94,0000 0000 0000 0000 000000
2018-05-29 06:10:17,0.00,0.97,0.00,24.67,28.57,31.70,13.73,48.55,1001.97,2020.99,3017.13,2825.41,3200.55,599.75,583.96,52.99,0000 0000 0000 0000 000000
2018-05-29 06:15:19,0.02,0.97,0.00,24.67,28.57,31.68,13.74,48.53,1001.98,2020.99,3017.00,2825.06,3200.04,600.02,584.07,53.05,0000 0000 0000 0000 000000
2018-05-29 06:20:20,0.00,0.97,0.00,24.67,28.57,31.68,13.70,48.57,1001.98,2020.99,3017.00,2825.01,3200.00,599.96,584.15,53.10,0000 0000 0000 0000 000000
2018-05-29 06:25:21,0.01,0.97,0.00,24.68,28.57,31.69,13.73,48.63,1002.02,2020.99,3016.72,2825.00,3199.79,600.08,584.16,53.15,0000 0000 0000 0000 000000
2018-05-29 06:30:23,0.01,0.97,0.00,24.69,28.57,31.70,13.77,48.57,1002.16,2020.99,3016.30,2825.00,3199.40,600.14,584.36,53.20,0000 0000 0000 0000 000000
2018-05-29 06:35:24,0.00,0.98,0.00,24.69,28.57,31.71,13.68,48.44,1002.32,2020.99,3016.04,2825.00,3199.07,599.71,584.07,53.25,0000 0000 0000 0000 000000
2018-05-29 06:40:26,0.00,0.98,0.00,24.69,28.58,31.68,13.70,48.43,1002.42,2020.99,3016.00,2825.00,3199.00,599.81,584.21,53.30,0000 0000 0000 0000 000000
2018-05-29 06:45:26,0.00,0.98,0.00,24.70,28.58,31.71,13.80,48.52,1002.46,2021.00,3016.00,2825.00,3199.00,600.36,584.75,53.35,0000 0000 0000 0000 000000
2018-05-29 06:50:28,0.00,0.98,0.00,24.71,28.59,31.69,13.74,48.50,1002.46,2021.00,3015.99,2824.98,3199.00,600.00,584.34,53.40,0000 0000 0000 0000 000000
2018-05-29 06:55:29,0.00,0.98,0.00,24.72,28.60,31.70,13.73,48.45,1002.47,2021.00,3015.95,2824.95,3198.95,600.08,584.38,53.45,0000 0000 0000 0000 000000
2018-05-29 07:00:30,0.00,0.98,0.00,24.72,28.60,31.70,13.74,48.42,1002.52,2021.00,3015.92,2824.91,3198.93,600.04,584.37,53.50,0000 0000 0000 0000 000000
2018-05-29 07:05:31,0.01,0.98,0.00,24.77,28.60,31.71,13.72,48.50,1002.74,2021.00,3015.81,2824.77,3198.79,600.27,584.67,53.55,0000 0000 0000 0000 000000
2018-05-29 07:10:32,0.01,0.98,0.00,24.79,28.60,31.70,13.76,48.49,1002.91,2021.00,3015.59,2824.53,3198.69,600.15,584.60,53.60,0000 0000 0000 0000 000000
2018-05-29 07:15:33,0.02,0.98,0.00,24.81,28.60,31.70,13.73,48.50,1002.94,2021.00,3015.18,2824.12,3198.18,600.10,584.52,53.65,0000 0000 0000 0000 000000
2018-05-29 07:20:34,-0.00,0.98,0.00,24.81,28.60,31.70,13.71,48.53,1002.94,2021.00,3015.07,2824.04,3198.07,599.92,584.39,53.70,0000 0000 0000 0000 000000
2018-05-29 07:25:36,0.00,0.98,0.00,24.78,28.60,31.71,13.72,48.60,1002.94,2021.00,3015.02,2824.01,3198.01,599.80,584.48,53.75,0000 0000 0000 0000 000000
2018-05-29 07:30:37,0.00,0.98,0.00,24.78,28.62,31.71,13.75,48.60,1002.96,2021.00,3015.00,2824.00,3198.00,600.08,584.56,53.80,0000 0000 0000 0000 000000
2018-05-29 07:35:39,0.00,0.98,0.00,24.79,28.62,31.71,13.68,48.58,1003.00,2021.00,3015.00,2824.00,3198.00,599.88,584.39,53.85,0000 0000 0000 0000 000000
2018-05-29 07:40:40,0.00,0.98,0.00,24.80,28.62,31.74,13.65,48.52,1003.11,2021.00,3015.00,2824.00,3198.00,599.82,584.49,53.90,0000 0000 0000 0000 000000
2018-05-29 07:45:41,0.00,0.98,0.00,24.80,28.62,31.73,13.75,48.59,1003.25,2021.00,3015.00,2824.00,3198.00,600.12,584.75,53.96,0000 0000 0000 0000 000000
2018-05-29 07:50:43,0.00,0.98,0.00,24.81,28.63,31.76,13.76,48.57,1003.36,2021.00,3015.00,2823.99,3198.00,600.01,584.71,54.01,0000 0000 0000 0000 000000
2018-05-29 07:55:44,0.00,0.98,0.00,24.81,28.64,31.75,13.74,48.56,1003.40,2021.00,3014.98,2823.98,3197.99,599.93,584.59,54.06,0000 0000 0000 0000 000000
2018-05-29 08:00:45,0.00,0.98,0.00,24.82,28.65,31.74,13.75,48.58,1003.43,2020.99,3014.98,2823.96,3197.97,600.30,585.00,54.11,0000 0000 0000 0000 000000
2018-05-29 08:05:46,0.00,0.98,0.00,24.82,28.65,31.77,13.65,48.55,1003.43,2020.98,3014.98,2823.95,3197.98,599.99,584.60,54.16,0000 0000 0000 0000 000000
2018-05-29 08:10:47,-0.00,0.98,0.00,24.81,28.65,31.79,13.73,48.53,1003.43,2020.99,3014.97,2823.92,3197.96,599.80,584.54,54.21,0000 0000 0000 0000 000000
2018-05-29 08:15:48,0.05,0.98,0.00,24.82,28.65,31.78,13.69,48.49,1003.50,2020.99,3014.37,2823.42,3197.40,599.97,584.79,54.26,0000 0000 0000 0000 000000
2018-05-29 08:20:50,0.24,0.99,0.00,24.84,28.67,31.78,13.70,48.51,1003.73,2020.98,3010.94,2820.88,3194.55,599.83,584.74,54.31,0000 0000 0000 0000 000000
2018-05-29 08:25:51,0.16,1.00,0.00,24.85,28.67,31.79,13.73,48.53,1003.91,2020.98,3006.91,2817.60,3191.17,599.81,584.85,54.36,0000 0000 0000 0000 000000
2018-05-29 08:30:53,0.00,1.00,0.00,24.85,28.67,31.78,13.79,48.60,1003.92,2020.98,3006.77,2817.15,3190.99,600.41,585.34,54.41,0000 0000 0000 0000 000000
2018-05-29 08:35:54,0.00,1.00,0.00,24.85,28.67,31.78,13.66,48.41,1003.92,2020.97,3006.78,2817.06,3190.99,599.85,584.76,54.46,0000 0000 0000 0000 000000
2018-05-29 08:40:55,0.00,1.00,0.00,24.85,28.67,31.79,13.79,48.49,1003.93,2020.96,3006.44,2817.03,3190.91,600.24,585.17,54.51,0000 0000 0000 0000 000000
2018-05-29 08:45:56,-0.00,1.00,0.00,24.86,28.69,31.80,13.76,48.45,1003.99,2020.95,3006.82,2817.01,3190.99,600.03,584.91,54.56,0000 0000 0000 0000 000000
2018-05-29 08:50:58,0.00,1.00,0.00,24.86,28.70,31.79,13.78,48.48,1004.19,2020.94,3006.73,2817.01,3190.98,600.17,585.22,54.61,0000 0000 0000 0000 000000
2018-05-29 08:55:59,0.01,1.00,0.00,24.87,28.70,31.83,13.73,48.48,1004.31,2020.91,3006.58,2817.00,3190.96,600.10,585.27,54.66,0000 0000 0000 0000 000000
2018-05-29 09:01:00,-0.00,1.00,0.00,24.87,28.70,31.84,13.81,48.50,1004.40,2020.96,3006.47,2817.00,3190.95,600.14,585.35,54.71,0000 0000 0000 0000 000000
2018-05-29 09:06:01,-0.00,1.00,0.00,24.87,28.70,31.84,13.77,48.53,1004.41,2020.94,3006.36,2817.00,3190.91,599.93,585.15,54.76,0000 0000 0000 0000 000000
2018-05-29 09:11:03,-0.01,1.00,0.00,24.88,28.71,31.84,13.71,48.48,1004.41,2020.82,3006.21,2817.00,3190.78,600.04,585.21,54.81,0000 0000 0000 0000 000000
2018-05-29 09:16:04,-0.01,1.00,0.00,24.87,28.72,31.82,13.66,48.48,1004.42,2020.72,3006.44,2816.99,3190.86,599.86,585.03,54.86,0000 0000 0000 0000 000000
2018-05-29 09:21:05,0.01,1.00,0.00,24.88,28.72,31.84,13.70,48.45,1004.52,2020.90,3006.56,2816.99,3190.89,599.68,585.01,54.92,0000 0000 0000 0000 000000
2018-05-29 09:26:06,-0.01,1.00,0.00,24.89,28.72,31.84,13.83,48.49,1004.80,2020.84,3006.58,2816.99,3190.88,600.19,585.61,54.97,0000 0000 0000 0000 000000
2018-05-29 09:31:08,0.00,1.00,0.00,24.89,28.72,31.85,13.73,48.58,1004.89,2020.79,3006.80,2816.99,3190.92,599.90,585.34,55.02,0000 0000 0000 0000 000000
2018-05-29 09:36:09,-0.00,1.00,0.00,24.89,28.72,31.83,13.80,48.57,1004.90,2020.77,3006.86,2816.99,3190.98,600.27,585.73,55.07,0000 0000 0000 0000 000000
2018-05-29 09:41:10,-0.04,1.00,0.00,24.90,28.73,31.83,13.74,48.60,1004.91,2020.54,3006.87,2816.98,3190.97,599.89,585.30,55.12,0000 0000 0000 0000 000000
2018-05-29 09:46:12,0.00,1.00,0.00,24.89,28.75,31.86,13.72,48.58,1004.92,2020.45,3006.96,2816.99,3190.99,600.05,585.50,55.17,0000 0000 0000 0000 000000
2018-05-29 09:51:13,0.01,1.00,0.00,24.89,28.75,31.89,13.71,48.49,1005.04,2020.53,3006.92,2816.97,3190.98,599.93,585.44,55.22,0000 0000 0000 0000 000000
2018-05-29 09:56:14,-0.03,1.00,0.00,24.90,28.75,31.86,13.70,48.53,1005.29,2020.32,3006.93,2816.97,3190.99,599.76,585.43,55.27,0000 0000 0000 0000 000000
2018-05-29 10:01:16,-0.00,1.00,0.00,24.90,28.75,31.89,13.78,48.56,1005.38,2020.17,3006.88,2816.91,3190.98,600.20,585.75,55.32,0000 0000 0000 0000 000000
2018-05-29 10:06:17,-0.00,1.00,0.00,24.90,28.75,31.88,13.74,48.55,1005.39,2020.10,3006.95,2816.94,3190.99,599.87,585.61,55.37,0000 0000 0000 0000 000000
2018-05-29 10:11:18,0.00,1.00,0.00,24.90,28.75,31.87,13.76,48.52,1005.39,2020.09,3006.99,2816.77,3190.99,600.10,585.75,55.42,0000 0000 0000 0000 000000
2018-05-29 10:16:19,0.01,1.00,0.00,24.90,28.76,31.91,13.81,48.59,1005.41,2020.05,3006.97,2816.46,3190.99,600.35,586.15,55.47,0000 0000 0000 0000 000000
2018-05-29 10:21:20,0.00,1.00,0.00,24.90,28.77,31.87,13.77,48.63,1005.49,2020.04,3006.94,2816.28,3190.99,600.08,585.85,55.52,0000 0000 0000 0000 000000
2018-05-29 10:26:22,0.00,1.00,0.00,24.90,28.77,31.88,13.70,48.61,1005.73,2020.02,3006.92,2816.08,3190.98,599.89,585.81,55.57,0000 0000 0000 0000 000000
2018-05-29 10:31:23,0.00,1.00,0.00,24.90,28.77,31.90,13.69,48.57,1005.86,2020.01,3006.70,2816.02,3190.97,599.77,585.79,55.62,0000 0000 0000 0000 000000
2018-05-29 10:36:24,0.01,1.00,0.00,24.90,28.77,31.88,13.69,48.58,1005.87,2020.00,3006.22,2816.01,3190.86,599.74,585.80,55.67,0000 0000 0000 0000 000000
2018-05-29 10:41:25,0.00,1.00,0.00,24.90,28.77,31.90,13.76,48.61,1005.87,2020.01,3006.23,2816.00,3190.94,600.10,586.04,55.72,0000 0000 0000 0000 000000
2018-05-29 10:46:27,0.00,1.00,0.00,24.89,28.77,31.92,13.75,48.56,1005.89,2020.00,3006.19,2816.00,3190.94,599.80,585.68,55.78,0000 0000 0000 0000 000000
2018-05-29 10:51:28,0.00,1.00,0.00,24.89,28.77,31.90,13.69,48.52,1005.93,2020.00,3006.09,2816.00,3190.90,600.06,586.11,55.83,0000 0000 0000 0000 000000
2018-05-29 10:56:29,0.00,1.00,0.00,24.89,28.77,31.92,13.82,48.54,1006.10,2020.00,3006.04,2816.00,3190.81,600.20,586.39,55.88,0000 0000 0000 0000 000000
2018-05-29 11:01:30,0.00,1.00,0.00,24.87,28.77,31.90,13.71,48.59,1006.30,2020.00,3006.02,2815.99,3190.56,599.96,586.13,55.93,0000 0000 0000 0000 000000
2018-05-29 11:06:31,0.01,1.00,0.00,24.87,28.77,31.92,13.79,48.60,1006.33,2020.00,3006.01,2815.98,3190.27,600.15,586.44,55.98,0000 0000 0000 0000 000000
2018-05-29 11:11:33,0.00,1.00,0.00,24.87,28.77,31.91,13.78,48.55,1006.36,2020.00,3005.99,2815.94,3190.06,600.09,586.24,56.03,0000 0000 0000 0000 000000
2018-05-29 11:16:34,0.00,1.00,0.00,24.85,28.77,31.93,13.76,48.66,1006.37,2020.00,3005.99,2815.91,3190.05,600.08,586.48,56.08,0000 0000 0000 0000 000000
2018-05-29 11:21:35,0.00,1.00,0.00,24.85,28.77,31.91,13.75,48.53,1006.43,2020.00,3005.99,2815.85,3190.06,599.90,586.42,56.13,0000 0000 0000 0000 000000
2018-05-29 11:26:37,0.00,1.00,0.00,24.83,28.77,31.93,13.71,48.52,1006.63,2020.00,3005.98,2815.65,3190.01,599.84,586.44,56.18,0000 0000 0000 0000 000000
2018-05-29 11:31:38,0.01,1.00,0.00,24.82,28.77,31.91,13.81,48.56,1006.82,2020.00,3005.98,2815.58,3190.01,600.16,586.80,56.23,0000 0000 0000 0000 000000
2018-05-29 11:36:39,0.00,1.00,0.00,24.82,28.77,31.90,13.77,48.52,1006.85,2020.00,3005.96,2815.48,3190.02,600.17,586.89,56.28,0000 0000 0000 0000 000000
2018-05-29 11:41:40,0.00,1.00,0.00,24.82,28.77,31.89,13.77,48.62,1006.85,2020.00,3005.94,2815.35,3190.01,600.03,586.79,56.33,0000 0000 0000 0000 000000
2018-05-29 11:46:42,0.01,1.00,0.00,24.82,28.76,31.89,13.79,48.63,1006.85,2020.00,3005.87,2815.29,3190.01,600.08,586.74,56.38,0000 0000 0000 0000 000000
2018-05-29 11:51:43,0.01,1.00,0.00,24.80,28.75,31.89,13.77,48.67,1006.85,2020.00,3005.57,2815.05,3190.00,599.70,586.48,56.43,0000 0000 0000 0000 000000
2018-05-29 11:56:45,0.01,1.00,0.00,24.79,28.75,31.88,13.75,48.66,1006.87,2020.01,3005.17,2815.02,3190.00,599.87,586.59,56.48,0000 0000 0000 0000 000000
2018-05-29 12:01:46,0.03,1.00,0.00,24.78,28.75,31.89,13.68,48.62,1006.92,2020.00,3004.44,2814.97,3189.58,599.88,586.56,56.53,0000 0000 0000 0000 000000
2018-05-29 12:06:47,0.01,1.01,0.00,24.78,28.75,31.85,13.73,48.63,1007.04,2020.00,3004.00,2814.87,3189.10,599.81,586.69,56.58,0000 0000 0000 0000 000000
2018-05-29 12:11:48,-0.00,1.01,0.00,24.77,28.75,31.85,13.83,48.59,1007.26,2020.00,3004.00,2814.88,3189.15,600.15,587.15,56.63,0000 0000 0000 0000 000000
2018-05-29 12:16:50,0.00,1.01,0.00,24.76,28.74,31.84,13.78,48.62,1007.33,2020.00,3004.00,2814.84,3189.20,600.19,587.29,56.69,0000 0000 0000 0000 000000
2018-05-29 12:21:51,0.02,1.01,0.00,24.75,28.73,31.84,13.77,48.63,1007.34,2020.01,3003.99,2814.40,3189.05,600.14,587.22,56.74,0000 0000 0000 0000 000000
2018-05-29 12:26:52,0.01,1.01,0.00,24.75,28.72,31.83,13.87,48.69,1007.34,2020.01,3003.75,2814.06,3189.00,600.12,587.25,56.79,0000 0000 0000 0000 000000
2018-05-29 12:31:53,0.01,1.01,0.00,24.74,28.72,31.85,13.77,48.67,1007.34,2020.00,3003.14,2814.00,3189.00,599.78,586.95,56.84,0000 0000 0000 0000 000000
2018-05-29 12:36:55,0.00,1.01,0.00,24.72,28.72,31.83,13.81,48.70,1007.34,2020.01,3003.05,2814.00,3188.99,600.09,587.18,56.89,0000 0000 0000 0000 000000
2018-05-29 12:41:56,0.00,1.01,0.00,24.70,28.71,31.83,13.76,48.67,1007.34,2020.02,3003.02,2814.00,3188.99,600.00,587.24,56.94,0000 0000 0000 0000 000000
2018-05-29 12:46:57,0.00,1.01,0.00,24.70,28.70,31.83,13.80,48.68,1007.35,2020.03,3003.01,2813.99,3188.99,600.01,587.25,56.99,0000 0000 0000 0000 000000
2018-05-29 12:51:58,0.00,1.01,0.00,24.68,28.70,31.82,13.82,48.58,1007.35,2020.03,3003.01,2813.99,3188.99,600.01,587.24,57.04,0000 0000 0000 0000 000000
2018-05-29 12:56:59,0.00,1.01,0.00,24.67,28.70,31.82,13.83,48.71,1007.37,2020.02,3003.00,2813.98,3188.97,600.16,587.39,57.09,0000 0000 0000 0000 000000